Terminal Aerodrome Forecast
Issued by NWS Salt Lake City, UT

Home | Current Version | Previous Version | Text Only | Print | Product List | Glossary On
Versions: 1 2 3 4 5 6 7 8 9 10 11 12 13 14 15 16 17 18 19 20 21 22 23 24 25 26 27 28 29 30 31 32 33 34 35 36 37 38 39 40 41 42 43 44 45 46 47 48 49 50
000
FTUS45 KSLC 280154 AAC
TAFSLC
TAF AMD
KSLC 280154Z 2802/2906 30011KT P6SM VCTS SCT035CB BKN050
     FM280202 29025G40KT 2SM -TSRAGR BKN025CB OVC050
     FM280300 08011KT P6SM VCSH SCT030 BKN050
     FM280400 15008KT P6SM SCT050 BKN100
     FM281600 32007KT P6SM SCT060 BKN100=

USA.gov is the U.S. government's official web portal to all federal, state and local government web resources and services.